Вернуться в каталог

LEONAV-1

АктивенЛюбительское радиоSSO
NORAD 69937·PAYLOAD·🇫🇷 France

Запущен Jul 7, 2026 с Vandenberg Space Force Base

Loading…

Ближайшие Пролёты (ближайшие 24 часа)

TLE

СвежийSource: Space-Track

Эпоха: Sep 14, 2026, 04:20 UTC

1 69937U 26156BW  26257.18118114  .00001816  00000-0  18031-3 0  9993
2 69937  97.7435 156.5741 0009314 289.3760  70.6453 14.92939553 10277

Отслеживайте LEONAV-1 в реальном времени с AllMySat

Download on the App Store